Location: Melizzano
(41.1500°N, 14.5000°E)
Time: 09:29:43
(UTC+00:00)

Cosmos 1709 Rocket - Pass Details

Date: 28 September 2021
Orbit: 948 x 1002 km, 82.9° (Epoch: 27 October)

Event Time Altitude Azimuth Distance (km) Brightness Sun altitude
Rises 02:39:11 0° 2° (N) 3,628 7.3 -26.0°
Reaches altitude 10° 02:42:02 10° 13° (NNE) 2,680 6.7 -25.5°
Maximum altitude 02:47:19 30° 73° (ENE) 1,653 5.8 -24.5°
Drops below altitude 10° 02:52:35 10° 133° (SE) 2,683 6.6 -23.6°
Sets 02:55:25 0° 144° (SE) 3,632 7.2 -23.1°
